Livingston, MT

11:09 PM MDT on October 19, 2017 (GMT -0600)
Mission

Weather History for KLVM - July, 2013

Change the Weather History Date:

Tuesday, July 30, 2013

  Actual Average Record
Temperature  
Mean Temperature 68 °F 68 °F  
Max Temperature 86 °F 87 °F 104 °F (2000)
Min Temperature 50 °F 50 °F 39 °F (1971)
Degree Days  
Heating Degree Days 0 1  
Month to date heating degree days 49  
Since 1 June heating degree days 256  
Since 1 July heating degree days 49  
Cooling Degree Days 3 4  
Month to date cooling degree days 183 102  
Year to date cooling degree days 233 122  
Since 1 June cooling degree days 225 121  
Growing Degree Days 16 (Base 50)    
Moisture  
Dew Point 47 °F    
Average Humidity 52    
Maximum Humidity 83    
Minimum Humidity 20    
Precipitation  
Precipitation T in 0.04 in 0.78 in (1975)
Month to date precipitation 1.30 1.43  
Year to date precipitation 7.12 10.08  
Sea Level Pressure  
Sea Level Pressure 30.08 in    
Wind  
Wind Speed 8 mph (East)    
Max Wind Speed 23 mph    
Max Gust Speed 28 mph    
Visibility 10 miles    
Events Rain , Thunderstorm    
T = Trace of Precipitation, MM = Missing Value Source: NWS Daily Summary

Daily Weather History Graph

Daily Weather History Graph

Search for Another Location

Airport or City:

Trip Planner

Search our weather history database for the weather conditions in past years. The results will help you decide how hot, cold, wet, or windy it might be!

Date:

Astronomy

Jul. 30, 2013 Rise Set
Actual Time 6:03 AM MDT 8:52 PM MDT
Civil Twilight 5:28 AM MDT 9:26 PM MDT
Nautical Twilight 4:44 AM MDT 10:10 PM MDT
Astronomical Twilight 3:52 AM MDT 11:01 PM MDT
Moon 12:25 AM MDT (7/30) 3:15 PM MDT (7/30)
Length of Visible Light 15h 58m
Length of Day
14h 49m
Last Quarter, 40% of the Moon is Illuminated
Jul 30
Last Quarter
Aug 6
New
Aug 14
First Quarter
Aug 20
Full
Aug 28
Last Quarter

Hourly Weather History & Observations

Time (MDT) Temp. Dew Point Humidity Pressure Visibility Wind Dir Wind Speed Gust Speed Precip Events Conditions
12:53 AM 62.1 °F 50.0 °F 65% 29.99 in 10.0 mi SE 8.1 mph - N/A   Clear
1:53 AM 60.1 °F 48.9 °F 67% 29.99 in 10.0 mi SE 9.2 mph - N/A   Clear
2:53 AM 55.9 °F 48.0 °F 75% 30.00 in 10.0 mi South 5.8 mph - N/A   Clear
3:53 AM 55.9 °F 48.0 °F 75% 30.00 in 10.0 mi ENE 3.5 mph - N/A   Clear
4:53 AM 55.9 °F 48.0 °F 75% 30.02 in 10.0 mi North 3.5 mph - N/A   Partly Cloudy
5:53 AM 51.1 °F 46.9 °F 86% 30.05 in 10.0 mi South 4.6 mph - N/A   Scattered Clouds
6:53 AM 53.1 °F 46.9 °F 80% 30.06 in 10.0 mi NE 3.5 mph - N/A   Clear
7:53 AM 57.9 °F 48.9 °F 72% 30.07 in 10.0 mi NW 10.4 mph - N/A   Partly Cloudy
8:53 AM 62.1 °F 50.0 °F 65% 30.10 in 10.0 mi WNW 10.4 mph - N/A   Clear
9:53 AM 66.0 °F 48.9 °F 54% 30.08 in 10.0 mi NNW 9.2 mph - N/A   Partly Cloudy
10:53 AM 71.1 °F 48.0 °F 44% 30.06 in 10.0 mi Calm Calm - N/A   Clear
11:53 AM 75.0 °F 50.0 °F 41% 30.06 in 10.0 mi ENE 8.1 mph - N/A   Partly Cloudy
12:53 PM 73.9 °F 46.9 °F 38% 30.05 in 10.0 mi ENE 9.2 mph - N/A   Mostly Cloudy
1:53 PM 80.1 °F 42.1 °F 26% 30.04 in 10.0 mi NNW 8.1 mph - N/A   Scattered Clouds
2:53 PM 82.0 °F 39.9 °F 22% 30.02 in 10.0 mi Variable 3.5 mph - N/A   Clear
3:53 PM 82.9 °F 37.0 °F 19% 30.01 in 10.0 mi Variable 4.6 mph - N/A   Scattered Clouds
4:53 PM 81.0 °F 36.0 °F 20% 30.02 in 10.0 mi NNE 10.4 mph - N/A   Mostly Cloudy
5:30 PM 78.8 °F 46.4 °F 32% 30.16 in 10.0 mi NE 10.4 mph - N/A Thunderstorm Overcast
5:45 PM 78.8 °F 46.4 °F 32% 30.16 in 10.0 mi ENE 11.5 mph - N/A   Mostly Cloudy
5:53 PM 78.1 °F 46.0 °F 32% 30.06 in 10.0 mi ENE 12.7 mph - N/A   Mostly Cloudy
6:39 PM 71.6 °F 44.6 °F 38% 30.20 in 10.0 mi SSW 13.8 mph 27.6 mph 0.00 in Rain , Thunderstorm Light Thunderstorms and Rain
6:53 PM 73.0 °F 45.0 °F 37% 30.11 in 10.0 mi SSW 18.4 mph 25.3 mph 0.00 in Thunderstorm Mostly Cloudy
7:09 PM 73.4 °F 46.4 °F 38% 30.23 in 10.0 mi ESE 9.2 mph - N/A   Partly Cloudy
7:53 PM 70.0 °F 51.1 °F 51% 30.12 in 10.0 mi East 13.8 mph 19.6 mph N/A   Scattered Clouds
8:53 PM 64.0 °F 52.0 °F 65% 30.13 in 10.0 mi East 8.1 mph - N/A   Clear
9:53 PM 62.1 °F 53.1 °F 72% 30.17 in 10.0 mi SSE 10.4 mph - N/A   Clear
10:53 PM 60.1 °F 51.1 °F 72% 30.17 in 10.0 mi SE 6.9 mph - N/A   Clear
11:53 PM 55.0 °F 48.9 °F 80% 30.18 in 10.0 mi Variable 3.5 mph - N/A   Clear